Moab, UT

4:50 AM MST on November 22, 2019 (GMT -0700)
Canyonlands

Weather History for KCNY - October, 2019

Change the Weather History Date:

Tuesday, October 22, 2019

  Actual Average Record
Temperature  
Mean Temperature 48 °F 51 °F  
Max Temperature 64 °F 65 °F 87 °F (1950)
Min Temperature 32 °F 36 °F 22 °F (1935)
Degree Days  
Heating Degree Days 17 14  
Month to date heating degree days 293 210  
Since 1 July heating degree days 316 268  
Cooling Degree Days 0 0  
Month to date cooling degree days 0 4  
Year to date cooling degree days 1462 1288  
Moisture  
Dew Point 22 °F    
Average Humidity 40    
Maximum Humidity 56    
Minimum Humidity 24    
Precipitation  
Precipitation 0.00 in 0.02 in 0.73 in (1947)
Month to date precipitation T 0.87  
Year to date precipitation 6.24 7.21  
Sea Level Pressure  
Sea Level Pressure 30.22 in    
Wind  
Wind Speed 3 mph (WSW)    
Max Wind Speed 10 mph    
Max Gust Speed 15 mph    
Visibility 10 miles    
Events      
T = Trace of Precipitation, MM = Missing Value Source: NWS Daily Summary

Daily Weather History Graph

Daily Weather History Graph

Search for Another Location

Airport or City:

Astronomy

Oct. 22, 2019 Rise Set
Actual Time 7:35 AM MDT 6:31 PM MDT
Civil Twilight 7:08 AM MDT 6:58 PM MDT
Nautical Twilight 6:37 AM MDT 7:29 PM MDT
Astronomical Twilight 6:06 AM MDT 7:59 PM MDT
Moon 12:53 AM MDT 3:38 PM MDT
Length of Visible Light 11h 50m
Length of Day
10h 55m
Last Quarter, 36% of the Moon is Illuminated
Oct 22
Last Quarter
Oct 27
New
Nov 4
First Quarter
Nov 12
Full
Nov 19
Last Quarter

Hourly Weather History & Observations

Time (MDT) Temp. Windchill Dew Point Humidity Pressure Visibility Wind Dir Wind Speed Gust Speed Precip Events Conditions
12:53 AM 45.0 °F 39.7 °F 21.9 °F 40% 30.22 in 10.0 mi NW 10.4 mph - N/A   Clear
1:53 AM 41.0 °F - 19.9 °F 43% 30.25 in 7.0 mi Calm Calm - N/A   Clear
2:53 AM 35.1 °F 31.0 °F 17.1 °F 48% 30.28 in 10.0 mi West 4.6 mph - N/A   Clear
3:53 AM 39.0 °F 36.8 °F 19.9 °F 46% 30.26 in 10.0 mi NE 3.5 mph - N/A   Clear
4:53 AM 35.1 °F 30.1 °F 18.0 °F 50% 30.27 in 10.0 mi WSW 5.8 mph - N/A   Clear
5:53 AM 34.0 °F 31.0 °F 18.0 °F 52% 30.29 in 10.0 mi WNW 3.5 mph - N/A   Clear
6:53 AM 34.0 °F - 19.0 °F 54% 30.33 in 10.0 mi Calm Calm - N/A   Clear
7:53 AM 34.0 °F - 19.0 °F 54% 30.32 in 10.0 mi Calm Calm - N/A   Clear
8:53 AM 39.9 °F - 19.0 °F 43% 30.34 in 10.0 mi Calm Calm - N/A   Clear
9:53 AM 48.0 °F - 19.9 °F 33% 30.32 in 10.0 mi ESE 8.1 mph - N/A   Clear
10:53 AM 51.1 °F - 21.9 °F 32% 30.31 in 10.0 mi Variable 3.5 mph - N/A   Clear
11:53 AM 55.0 °F - 23.0 °F 29% 30.28 in 10.0 mi Variable 4.6 mph - N/A   Clear
12:53 PM 55.9 °F - 24.1 °F 29% 30.25 in 10.0 mi Calm Calm - N/A   Clear
1:53 PM 61.0 °F - 25.0 °F 25% 30.20 in 10.0 mi Calm Calm - N/A   Clear
2:53 PM 62.1 °F - 26.1 °F 25% 30.17 in 10.0 mi SSW 5.8 mph - N/A   Clear
3:53 PM 64.0 °F - 27.0 °F 25% 30.14 in 10.0 mi West 9.2 mph - N/A   Clear
4:53 PM 63.0 °F - 27.0 °F 26% 30.14 in 10.0 mi Variable 3.5 mph - N/A   Clear
5:53 PM 62.1 °F - 26.1 °F 25% 30.13 in 10.0 mi West 6.9 mph - N/A   Clear
6:53 PM 55.0 °F - 23.0 °F 29% 30.13 in 10.0 mi SW 3.5 mph - N/A   Clear
7:53 PM 52.0 °F - 24.1 °F 34% 30.14 in 10.0 mi Calm Calm - N/A   Clear
9:53 PM 48.0 °F - 21.9 °F 36% 30.12 in 10.0 mi West 6.9 mph - N/A   Clear
10:53 PM 46.0 °F 44.8 °F 21.9 °F 39% 30.11 in 10.0 mi SSW 3.5 mph - N/A   Clear
11:53 PM 46.0 °F 44.8 °F 23.0 °F 40% 30.08 in 10.0 mi East 3.5 mph - N/A   Clear